This demonstration page uses our WeatherBlox Daily Observations layout. Learn more.

Left ArrowRight Arrow

Hourly Observations for June 1, 2021

Temp ( °F °C ) Dew Point ( °F °C ) Humidity (%) Winds ( mph kmh ) Pressure ( in mb ) Visibility ( mi km ) Precip ( " mm )
12:59 am 00:59 Clear 60 15.6 54 12.2 80 80 S 7 11 30.31 1027 10 16 0.00 0.00
1:59 am 01:59 Clear 60 15.6 55 12.8 84 84 S 7 11 30.31 1026 10 16 0.00 0.00
2:59 am 02:59 Mostly Clear 59 15 54 12.2 83 83 S 6 9 30.30 1026 10 16 0.00 0.00
3:59 am 03:59 Clear 59 15 54 12.2 83 83 S 5 7 30.32 1027 10 16 0.00 0.00
4:59 am 04:59 Mostly Clear 59 15 54 12.2 83 83 S 5 7 30.32 1027 10 16 0.00 0.00
5:59 am 05:59 Partly Cloudy 58 14.4 54 12.2 87 87 S 5 7 30.32 1027 10 16 0.00 0.00
6:08 am 06:08 Mostly Sunny 58 14.4 54 12.2 87 87 undefined N/A 30.32 1027 10 16 0.00 0.00
6:59 am 06:59 Partly Cloudy 60 15.6 55 12.8 84 84 S 5 7 30.32 1027 10 16 0.00 0.00
7:59 am 07:59 Partly Cloudy 64 17.8 56 13.3 75 75 S 3 6 30.33 1027 10 16 0.00 0.00
8:59 am 08:59 Partly Cloudy 68 20 55 12.8 63 63 SW 7 11 30.34 1027 10 16 0.00 0.00
9:59 am 09:59 Sunny 71 21.7 56 13.3 59 59 SW 5 7 30.33 1027 10 16 0.00 0.00
10:59 am 10:59 Mostly Cloudy 73 22.8 56 13.3 55 55 SW 7 11 30.32 1027 10 16 0.00 0.00
11:59 am 11:59 Partly Cloudy 73 22.8 53 11.7 50 50 VRB 5 7 30.31 1027 10 16 0.00 0.00
12:59 pm 12:59 Mostly Cloudy 73 22.8 58 14.4 59 59 ENE 9 15 30.29 1026 10 16 0.00 0.00
1:59 pm 13:59 Mostly Cloudy 75 23.9 56 13.3 52 52 ENE 13 20 30.28 1026 10 16 0.00 0.00
2:59 pm 14:59 Partly Cloudy 76 24.4 55 12.8 48 48 E 10 17 30.26 1025 10 16 0.00 0.00
3:59 pm 15:59 Mostly Cloudy 76 24.4 54 12.2 47 47 ENE 13 20 30.25 1024 10 16 0.00 0.00
4:59 pm 16:59 Mostly Cloudy 75 23.9 53 11.7 46 46 ESE 12 19 30.25 1024 10 16 0.00 0.00
5:59 pm 17:59 Mostly Cloudy 73 22.8 52 11.1 48 48 SE 10 17 30.24 1024 10 16 0.00 0.00
6:59 pm 18:59 Mostly Cloudy 71 21.7 50 10 47 47 SSE 12 19 30.25 1024 10 16 0.00 0.00
7:59 pm 19:59 Mostly Cloudy 69 20.6 49 9.4 49 49 SE 9 15 30.26 1025 10 16 0.00 0.00
8:59 pm 20:59 Cloudy 67 19.4 50 10 55 55 SE 10 17 30.26 1025 10 16 0.00 0.00
9:59 pm 21:59 Cloudy 64 17.8 52 11.1 65 65 SSE 8 13 30.27 1025 10 16 0.00 0.00
10:59 pm 22:59 Cloudy 63 17.2 54 12.2 73 73 SSE 7 11 30.27 1025 10 16 0.00 0.00
11:59 pm 23:59 Mostly Cloudy 63 17.2 55 12.8 76 76 SSE 6 9 30.26 1025 10 16 0.00 0.00

Powered by AerisWeather